Location: Henham
(51.9333°N, 0.2500°E)
Time: 08:21:13
(UTC+00:00)

Cosmos 44 - Pass Details

Date: 23 October 2019
Orbit: 593 x 769 km, 65.1° (Epoch: 16 November)

Event Time Altitude Azimuth Distance (km) Brightness Sun altitude
Rises 18:36:34 0° 204° (SSW) 3,091 6.9 -17.2°
Reaches altitude 10° 18:39:00 10° 199° (SSW) 2,148 6.0 -17.6°
Maximum altitude 18:43:43 51° 125° (SE) 841 3.3 -18.3°
Enters shadow 18:45:13 36° 73° (ENE) 1,043 3.7 -18.5°
